Volver al catálogo

BEIDOU 3M15

ActivoNavegaciónMEO
NORAD 43647·PAYLOAD·🇨🇳 China

Lanzado Oct 15, 2018 desde Xichang Satellite Launch Center

Loading…

Próximos Pases (próximas 24 horas)

TLE

ActualizadoSource: CelesTrak SupGP

Época: Sep 12, 2026, 00:00 UTC

1 43647C 18078A   26255.00000000  .00000000  00000+0  00000+0 0  2551
2 43647  54.0085 296.9343 0006118  30.9231 325.6845  1.86232593    11

Sigue BEIDOU 3M15 en tiempo real con AllMySat

Download on the App Store